QPF
0.00 0.00 0.00 0.00 0.00 0.00 0.00 0.00 0.00 0.00 0.00 0.00 0.00 0.00 0.00 0.00 0.00 0.00 0.00 0.00 0.00 0.00 0.00 0.00 0.00 0.00 0.00 0.00 0.00 0.00 0.00 0.00 0.00 0.00 0.00 0.00 0.00 0.00 0.00 0.00 0.00 0.00 0.00
0.00 0.00 0.00 0.00 0.00 0.00 0.00 0.00 0.00 0.00 0.00 0.00 0.00 0.00 0.00 0.00 0.00 0.00 0.00 0.00 0.00 0.00 0.00 0.00 0.00 0.00 0.00 0.00 0.00 0.00 0.00 0.00 0.00 0.00 0.00 0.00 0.00 0.00 0.00 0.00 0.00 0.00 0.00
0.00 0.00 0.00 0.00 0.00 0.00 0.00 0.00 0.00 0.00 0.00 0.00 0.00 0.00 0.00 0.00 0.00 0.00 0.00 0.00 0.00 0.00 0.00 0.00 0.00 0.00 0.00 0.00 0.00 0.00 0.00 0.00 0.00 0.00 0.00 0.00 0.00 0.00 0.00 0.00 0.00 0.00 0.00
0.00 0.00 0.00 0.00 0.00 0.00 0.00 0.00 0.00 0.00 0.00 0.00 0.00 0.00 0.00 0.00 0.00 0.00 0.00 0.00 0.00 0.00 0.00 0.00 0.00 0.00 0.00 0.00 0.00 0.00 0.00 0.00 0.00 0.00 0.01 0.05 0.01 0.00 0.00 0.00 0.00 0.00 0.00
0.00 0.00 0.00 0.00 0.00 0.00 0.00 0.00 0.00 0.00 0.00 0.00 0.00 0.00 0.00 0.00 0.00 0.00 0.00 0.00 0.00 0.00 0.00 0.00 0.00 0.00 0.00 0.00 0.00 0.00 0.00 0.00 0.00 0.00 0.02 0.09 0.05 0.01 0.01 0.00 0.00 0.00 0.00
0.00 0.00 0.00 0.00 0.00 0.00 0.00 0.00 0.00 0.00 0.00 0.00 0.00 0.00 0.00 0.00 0.00 0.00 0.00 0.00 0.00 0.00 0.00 0.00 0.00 0.00 0.00 0.00 0.00 0.00 0.00 0.00 0.00 0.00 0.01 0.03 0.04 0.03 0.02 0.01 0.00 0.00 0.00
0.00 0.00 0.00 0.00 0.00 0.00 0.00 0.00 0.00 0.00 0.00 0.00 0.00 0.00 0.00 0.00 0.00 0.00 0.00 0.00 0.00 0.00 0.00 0.00 0.00 0.00 0.00 0.00 0.00 0.00 0.00 0.00 0.00 0.00 0.00 0.01 0.02 0.04 0.04 0.03 0.01 0.00 0.00
0.00 0.00 0.00 0.00 0.00 0.00 0.00 0.00 0.00 0.00 0.00 0.00 0.00 0.00 0.00 0.00 0.00 0.00 0.00 0.00 0.00 0.00 0.00 0.00 0.00 0.00 0.00 0.00 0.00 0.00 0.00 0.00 0.00 0.00 0.00 0.02 0.02 0.04 0.06 0.05 0.02 0.00 0.00
0.00 0.00 0.00 0.00 0.00 0.00 0.00 0.00 0.00 0.00 0.00 0.00 0.00 0.00 0.00 0.00 0.00 0.00 0.00 0.00 0.00 0.00 0.00 0.00 0.00 0.00 0.00 0.00 0.00 0.00 0.00 0.00 0.00 0.00 0.00 0.01 0.02 0.05 0.08 0.05 0.03 0.02 0.01
0.00 0.00 0.00 0.00 0.00 0.00 0.00 0.00 0.00 0.00 0.00 0.00 0.00 0.00 0.00 0.00 0.00 0.00 0.00 0.00 0.00 0.00 0.00 0.00 0.00 0.00 0.00 0.00 0.00 0.00 0.00 0.00 0.00 0.00 0.00 0.00 0.02 0.09 0.12 0.09 0.08 0.07 0.05
0.00 0.00 0.00 0.00 0.00 0.00 0.00 0.00 0.00 0.00 0.00 0.00 0.00 0.00 0.00 0.00 0.00 0.00 0.00 0.02 0.04 0.05 0.04 0.03 0.02 0.01 0.01 0.00 0.00 0.01 0.01 0.00 0.01 0.02 0.01 0.01 0.04 0.12 0.16 0.14 0.10 0.08 0.06
0.00 0.00 0.00 0.00 0.00 0.00 0.00 0.00 0.00 0.00 0.00 0.00 0.00 0.00 0.00 0.00 0.00 0.00 0.02 0.07 0.11 0.13 0.12 0.11 0.11 0.09 0.06 0.03 0.04 0.08 0.06 0.04 0.05 0.07 0.08 0.05 0.07 0.16 0.19 0.15 0.10 0.07 0.05
0.01 0.01 0.01 0.00 0.00 0.00 0.00 0.00 0.00 0.00 0.00 0.00 0.00 0.01 0.01 0.01 0.01 0.02 0.05 0.10 0.13 0.15 0.10 0.15 0.22 0.18 0.16 0.14 0.15 0.17 0.17 0.15 0.16 0.24 0.25 0.23 0.20 0.24 0.25 0.17 0.11 0.08 0.05
0.03 0.03 0.03 0.02 0.01 0.00 0.00 0.00 0.00 0.00 0.00 0.01 0.02 0.05 0.06 0.05 0.05 0.07 0.08 0.08 0.09 0.08 0.10 0.12 0.17 0.28 0.35 0.28 0.24 0.28 0.28 0.23 0.25 0.37 0.49 0.47 0.42 0.37 0.38 0.30 0.18 0.10 0.05
0.07 0.06 0.06 0.07 0.04 0.02 0.01 0.00 0.01 0.01 0.01 0.02 0.04 0.07 0.11 0.13 0.11 0.13 0.14 0.11 0.09 0.11 0.14 0.17 0.21 0.33 0.44 0.39 0.29 0.30 0.33 0.28 0.26 0.26 0.28 0.34 0.40 0.36 0.39 0.35 0.20 0.13 0.08
0.14 0.18 0.22 0.22 0.16 0.10 0.04 0.02 0.02 0.03 0.04 0.05 0.07 0.09 0.14 0.15 0.12 0.13 0.13 0.12 0.10 0.12 0.15 0.18 0.20 0.26 0.32 0.29 0.22 0.21 0.23 0.22 0.18 0.17 0.18 0.18 0.24 0.26 0.25 0.23 0.20 0.17 0.12
0.37 0.49 0.63 0.63 0.41 0.24 0.13 0.06 0.06 0.07 0.07 0.07 0.07 0.08 0.14 0.13 0.10 0.09 0.07 0.06 0.06 0.08 0.10 0.11 0.11 0.12 0.12 0.13 0.11 0.11 0.09 0.09 0.11 0.09 0.11 0.13 0.15 0.18 0.14 0.13 0.16 0.16 0.14
0.83 1.12 1.33 1.29 0.93 0.55 0.32 0.16 0.11 0.11 0.12 0.10 0.06 0.04 0.04 0.05 0.04 0.03 0.03 0.03 0.03 0.03 0.05 0.05 0.05 0.06 0.05 0.05 0.04 0.04 0.03 0.03 0.04 0.06 0.08 0.10 0.10 0.09 0.07 0.10 0.12 0.13 0.14
1.30 1.77 2.16 2.14 1.56 0.90 0.49 0.27 0.19 0.17 0.14 0.10 0.06 0.03 0.02 0.01 0.01 0.01 0.01 0.01 0.01 0.01 0.01 0.01 0.02 0.02 0.02 0.02 0.02 0.01 0.01 0.01 0.01 0.02 0.03 0.04 0.05 0.07 0.06 0.06 0.08 0.08 0.13
1.59 2.18 2.52 2.60 1.97 1.19 0.70 0.41 0.28 0.20 0.12 0.07 0.04 0.01 0.00 0.00 0.00 0.00 0.00 0.00 0.00 0.00 0.00 0.00 0.00 0.00 0.01 0.01 0.01 0.00 0.00 0.00 0.00 0.00 0.01 0.01 0.02 0.03 0.04 0.04 0.04 0.04 0.08
2.00 2.67 2.89 2.60 1.86 1.28 0.84 0.55 0.28 0.14 0.07 0.03 0.02 0.01 0.00 0.00 0.00 0.00 0.00 0.00 0.00 0.00 0.00 0.00 0.00 0.00 0.00 0.00 0.00 0.00 0.00 0.00 0.00 0.00 0.00 0.00 0.01 0.01 0.02 0.03 0.03 0.04 0.04
1.99 2.29 2.25 1.86 1.25 0.87 0.57 0.31 0.15 0.09 0.04 0.01 0.01 0.01 0.00 0.00 0.00 0.00 0.00 0.00 0.00 0.00 0.00 0.00 0.00 0.00 0.00 0.00 0.00 0.00 0.00 0.00 0.00 0.00 0.01 0.01 0.01 0.03 0.03 0.03 0.04 0.06 0.07
1.46 1.50 1.24 0.90 0.62 0.50 0.30 0.15 0.09 0.04 0.02 0.01 0.01 0.01 0.00 0.00 0.00 0.00 0.00 0.00 0.00 0.00 0.00 0.00 0.00 0.00 0.00 0.00 0.00 0.01 0.01 0.00 0.00 0.00 0.01 0.03 0.04 0.05 0.05 0.06 0.08 0.08 0.11
0.71 0.67 0.52 0.40 0.31 0.25 0.18 0.15 0.10 0.06 0.04 0.04 0.03 0.02 0.01 0.00 0.00 0.00 0.00 0.00 0.00 0.00 0.00 0.00 0.00 0.00 0.00 0.00 0.00 0.01 0.01 0.01 0.01 0.00 0.00 0.01 0.03 0.05 0.08 0.10 0.10 0.10 0.13
0.24 0.31 0.35 0.27 0.24 0.24 0.19 0.15 0.12 0.10 0.08 0.07 0.06 0.04 0.03 0.02 0.01 0.01 0.00 0.00 0.00 0.00 0.00 0.00 0.00 0.00 0.00 0.00 0.00 0.00 0.00 0.01 0.02 0.01 0.00 0.00 0.00 0.03 0.09 0.16 0.14 0.12 0.13
0.09 0.14 0.18 0.17 0.20 0.24 0.25 0.20 0.16 0.12 0.09 0.08 0.07 0.06 0.06 0.05 0.03 0.02 0.01 0.01 0.00 0.00 0.00 0.00 0.00 0.00 0.00 0.00 0.00 0.00 0.00 0.00 0.01 0.01 0.01 0.00 0.00 0.01 0.05 0.13 0.13 0.14 0.15
MSLP
1010.71 1010.25 1009.97 1009.94 1010.16 1010.55 1011.03 1011.48 1011.81 1011.99 1012.05 1012.03 1012.01 1012.07 1012.24 1012.52 1012.88 1013.24 1013.56 1013.78 1013.90 1013.94 1013.95 1013.96 1014.03 1014.18 1014.39 1014.65 1014.89 1015.10 1015.25 1015.34 1015.39 1015.42 1015.45 1015.51 1015.60 1015.71 1015.83 1015.94 1016.03 1016.12 1016.20
1010.18 1009.87 1009.71 1009.78 1010.05 1010.46 1010.92 1011.33 1011.62 1011.79 1011.84 1011.85 1011.89 1012.02 1012.25 1012.59 1012.97 1013.34 1013.65 1013.85 1013.95 1013.98 1013.98 1014.00 1014.07 1014.21 1014.40 1014.63 1014.84 1015.03 1015.17 1015.27 1015.35 1015.41 1015.50 1015.60 1015.72 1015.84 1015.95 1016.05 1016.13 1016.20 1016.29
1009.67 1009.49 1009.45 1009.60 1009.92 1010.34 1010.77 1011.14 1011.41 1011.56 1011.63 1011.68 1011.77 1011.95 1012.23 1012.58 1012.97 1013.32 1013.60 1013.78 1013.88 1013.91 1013.92 1013.96 1014.04 1014.19 1014.37 1014.56 1014.75 1014.91 1015.03 1015.14 1015.24 1015.36 1015.49 1015.65 1015.80 1015.94 1016.05 1016.14 1016.21 1016.28 1016.37
1009.22 1009.14 1009.20 1009.42 1009.77 1010.19 1010.60 1010.94 1011.18 1011.33 1011.42 1011.51 1011.65 1011.87 1012.16 1012.51 1012.86 1013.18 1013.42 1013.57 1013.66 1013.72 1013.77 1013.85 1013.97 1014.14 1014.32 1014.49 1014.65 1014.77 1014.88 1014.99 1015.11 1015.27 1015.45 1015.65 1015.84 1016.00 1016.12 1016.20 1016.26 1016.33 1016.43
1008.84 1008.84 1008.97 1009.24 1009.61 1010.02 1010.41 1010.73 1010.96 1011.12 1011.23 1011.36 1011.53 1011.77 1012.06 1012.38 1012.68 1012.94 1013.13 1013.26 1013.35 1013.44 1013.55 1013.69 1013.87 1014.07 1014.27 1014.43 1014.56 1014.65 1014.73 1014.83 1014.97 1015.15 1015.37 1015.61 1015.83 1016.00 1016.12 1016.20 1016.26 1016.33 1016.45
1008.53 1008.59 1008.77 1009.08 1009.47 1009.87 1010.24 1010.54 1010.76 1010.92 1011.06 1011.21 1011.41 1011.66 1011.93 1012.21 1012.45 1012.64 1012.78 1012.88 1012.98 1013.11 1013.28 1013.51 1013.76 1014.01 1014.22 1014.38 1014.49 1014.55 1014.61 1014.69 1014.82 1015.02 1015.26 1015.52 1015.75 1015.93 1016.06 1016.13 1016.18 1016.26 1016.39
1008.27 1008.37 1008.61 1008.95 1009.35 1009.74 1010.09 1010.37 1010.57 1010.74 1010.90 1011.09 1011.31 1011.56 1011.81 1012.04 1012.22 1012.35 1012.43 1012.51 1012.61 1012.78 1013.01 1013.30 1013.62 1013.92 1014.17 1014.33 1014.42 1014.46 1014.49 1014.55 1014.67 1014.86 1015.10 1015.36 1015.60 1015.78 1015.90 1015.96 1016.01 1016.09 1016.23
1008.04 1008.20 1008.50 1008.88 1009.29 1009.67 1009.99 1010.24 1010.43 1010.60 1010.77 1010.98 1011.23 1011.48 1011.72 1011.91 1012.04 1012.10 1012.14 1012.18 1012.28 1012.46 1012.74 1013.08 1013.45 1013.79 1014.06 1014.24 1014.32 1014.34 1014.35 1014.38 1014.48 1014.65 1014.88 1015.13 1015.35 1015.52 1015.63 1015.69 1015.73 1015.81 1015.96
1007.85 1008.10 1008.46 1008.89 1009.31 1009.67 1009.95 1010.16 1010.32 1010.48 1010.66 1010.89 1011.16 1011.43 1011.66 1011.83 1011.92 1011.94 1011.92 1011.92 1012.00 1012.17 1012.45 1012.82 1013.21 1013.58 1013.87 1014.06 1014.14 1014.15 1014.15 1014.16 1014.24 1014.39 1014.59 1014.81 1015.01 1015.16 1015.26 1015.31 1015.35 1015.44 1015.59
1007.73 1008.08 1008.53 1009.00 1009.42 1009.75 1009.98 1010.13 1010.24 1010.37 1010.55 1010.80 1011.09 1011.38 1011.63 1011.79 1011.86 1011.84 1011.78 1011.73 1011.76 1011.90 1012.15 1012.50 1012.89 1013.26 1013.56 1013.76 1013.85 1013.87 1013.86 1013.87 1013.93 1014.05 1014.23 1014.42 1014.59 1014.72 1014.80 1014.85 1014.90 1014.98 1015.15
1007.72 1008.19 1008.72 1009.21 1009.61 1009.88 1010.04 1010.11 1010.16 1010.25 1010.41 1010.67 1010.98 1011.31 1011.58 1011.76 1011.83 1011.79 1011.69 1011.59 1011.56 1011.63 1011.83 1012.13 1012.48 1012.83 1013.12 1013.33 1013.44 1013.48 1013.48 1013.50 1013.55 1013.66 1013.80 1013.96 1014.10 1014.21 1014.29 1014.34 1014.39 1014.50 1014.67
1007.85 1008.43 1009.00 1009.49 1009.84 1010.02 1010.08 1010.05 1010.03 1010.06 1010.21 1010.47 1010.81 1011.17 1011.49 1011.70 1011.79 1011.74 1011.62 1011.47 1011.37 1011.37 1011.49 1011.71 1012.00 1012.31 1012.59 1012.80 1012.93 1013.00 1013.03 1013.07 1013.12 1013.21 1013.33 1013.46 1013.58 1013.67 1013.74 1013.80 1013.88 1014.00 1014.19
1008.12 1008.75 1009.33 1009.77 1010.02 1010.10 1010.04 1009.91 1009.80 1009.78 1009.90 1010.17 1010.54 1010.95 1011.32 1011.58 1011.69 1011.67 1011.53 1011.35 1011.20 1011.12 1011.15 1011.28 1011.50 1011.76 1012.01 1012.22 1012.37 1012.48 1012.54 1012.60 1012.66 1012.74 1012.83 1012.93 1013.03 1013.11 1013.19 1013.26 1013.37 1013.52 1013.73
1008.50 1009.11 1009.62 1009.96 1010.09 1010.04 1009.86 1009.63 1009.45 1009.39 1009.49 1009.77 1010.17 1010.62 1011.04 1011.35 1011.52 1011.53 1011.41 1011.22 1011.03 1010.90 1010.85 1010.90 1011.05 1011.24 1011.46 1011.66 1011.83 1011.95 1012.05 1012.12 1012.19 1012.26 1012.33 1012.40 1012.48 1012.55 1012.63 1012.73 1012.87 1013.06 1013.30
1008.92 1009.43 1009.81 1009.99 1009.98 1009.79 1009.51 1009.21 1008.98 1008.90 1009.01 1009.30 1009.72 1010.20 1010.67 1011.03 1011.26 1011.32 1011.25 1011.08 1010.89 1010.73 1010.63 1010.62 1010.70 1010.84 1011.01 1011.19 1011.35 1011.49 1011.59 1011.67 1011.73 1011.79 1011.83 1011.88 1011.93 1012.00 1012.08 1012.21 1012.38 1012.60 1012.88
1009.30 1009.63 1009.82 1009.82 1009.66 1009.37 1009.02 1008.69 1008.45 1008.38 1008.50 1008.80 1009.24 1009.74 1010.23 1010.64 1010.92 1011.05 1011.04 1010.93 1010.78 1010.63 1010.52 1010.47 1010.50 1010.59 1010.71 1010.85 1010.99 1011.10 1011.20 1011.27 1011.31 1011.34 1011.36 1011.37 1011.40 1011.45 1011.54 1011.68 1011.88 1012.13 1012.43
1009.59 1009.69 1009.65 1009.48 1009.19 1008.83 1008.47 1008.15 1007.95 1007.92 1008.06 1008.37 1008.80 1009.29 1009.78 1010.21 1010.53 1010.73 1010.80 1010.78 1010.70 1010.60 1010.52 1010.47 1010.46 1010.50 1010.57 1010.65 1010.74 1010.82 1010.88 1010.92 1010.93 1010.92 1010.91 1010.89 1010.89 1010.92 1011.00 1011.15 1011.36 1011.64 1011.95
1009.78 1009.61 1009.36 1009.03 1008.67 1008.29 1007.96 1007.72 1007.59 1007.61 1007.78 1008.08 1008.48 1008.92 1009.37 1009.78 1010.12 1010.38 1010.54 1010.62 1010.65 1010.64 1010.61 1010.58 1010.56 1010.56 1010.57 1010.59 1010.61 1010.63 1010.63 1010.63 1010.60 1010.55 1010.50 1010.45 1010.41 1010.42 1010.49 1010.62 1010.83 1011.10 1011.41
1009.87 1009.47 1009.04 1008.61 1008.21 1007.88 1007.63 1007.49 1007.47 1007.55 1007.73 1008.00 1008.32 1008.68 1009.05 1009.40 1009.73 1010.02 1010.26 1010.45 1010.59 1010.69 1010.74 1010.76 1010.75 1010.71 1010.66 1010.61 1010.56 1010.50 1010.45 1010.39 1010.32 1010.24 1010.15 1010.07 1010.00 1009.97 1010.00 1010.10 1010.28 1010.52 1010.81
1009.94 1009.36 1008.81 1008.33 1007.96 1007.70 1007.57 1007.55 1007.62 1007.76 1007.94 1008.14 1008.35 1008.58 1008.82 1009.08 1009.36 1009.66 1009.96 1010.25 1010.52 1010.72 1010.87 1010.94 1010.94 1010.89 1010.79 1010.67 1010.54 1010.42 1010.31 1010.21 1010.10 1010.00 1009.88 1009.76 1009.66 1009.59 1009.57 1009.61 1009.73 1009.92 1010.16
1010.06 1009.37 1008.76 1008.29 1007.98 1007.83 1007.82 1007.92 1008.07 1008.23 1008.37 1008.47 1008.55 1008.61 1008.70 1008.83 1009.04 1009.31 1009.65 1010.02 1010.38 1010.69 1010.93 1011.06 1011.08 1011.02 1010.88 1010.71 1010.53 1010.36 1010.20 1010.07 1009.95 1009.83 1009.70 1009.56 1009.42 1009.30 1009.21 1009.18 1009.21 1009.32 1009.49
1010.27 1009.55 1008.96 1008.53 1008.31 1008.26 1008.36 1008.54 1008.74 1008.89 1008.96 1008.95 1008.86 1008.75 1008.66 1008.65 1008.76 1008.99 1009.33 1009.75 1010.18 1010.57 1010.88 1011.06 1011.11 1011.04 1010.89 1010.68 1010.47 1010.27 1010.11 1009.97 1009.85 1009.74 1009.60 1009.45 1009.28 1009.10 1008.94 1008.81 1008.74 1008.75 1008.83
1010.62 1009.94 1009.39 1009.04 1008.89 1008.93 1009.10 1009.32 1009.52 1009.64 1009.63 1009.48 1009.23 1008.95 1008.70 1008.55 1008.54 1008.71 1009.03 1009.45 1009.92 1010.35 1010.70 1010.91 1010.98 1010.92 1010.77 1010.56 1010.34 1010.15 1010.00 1009.88 1009.79 1009.70 1009.58 1009.42 1009.22 1008.99 1008.74 1008.52 1008.34 1008.24 1008.23
1011.07 1010.47 1010.01 1009.73 1009.64 1009.72 1009.91 1010.13 1010.30 1010.36 1010.25 1009.99 1009.61 1009.18 1008.80 1008.52 1008.41 1008.50 1008.77 1009.17 1009.62 1010.05 1010.41 1010.63 1010.71 1010.66 1010.51 1010.32 1010.13 1009.97 1009.86 1009.79 1009.74 1009.69 1009.59 1009.43 1009.21 1008.93 1008.62 1008.30 1008.03 1007.82 1007.71
1011.58 1011.08 1010.70 1010.47 1010.41 1010.49 1010.66 1010.84 1010.96 1010.95 1010.77 1010.42 1009.95 1009.43 1008.95 1008.58 1008.39 1008.39 1008.59 1008.92 1009.32 1009.71 1010.03 1010.24 1010.31 1010.26 1010.13 1009.97 1009.82 1009.72 1009.66 1009.65 1009.66 1009.65 1009.58 1009.44 1009.21 1008.90 1008.53 1008.15 1007.79 1007.51 1007.33
1012.07 1011.67 1011.35 1011.15 1011.08 1011.13 1011.25 1011.37 1011.44 1011.37 1011.14 1010.76 1010.25 1009.69 1009.17 1008.75 1008.49 1008.41 1008.52 1008.76 1009.06 1009.37 1009.62 1009.78 1009.82 1009.77 1009.66 1009.54 1009.44 1009.39 1009.40 1009.45 1009.51 1009.55 1009.52 1009.39 1009.16 1008.84 1008.46 1008.04 1007.65 1007.33 1007.11
Thickness
5827 5828 5825 5822 5819 5817 5815 5814 5811 5809 5806 5804 5802 5800 5797 5794 5792 5789 5787 5784 5782 5779 5777 5775 5772 5770 5767 5764 5762 5761 5759 5758 5756 5754 5753 5751 5750 5749 5748 5746 5745 5743 5742
5835 5830 5827 5824 5820 5818 5815 5813 5811 5808 5805 5803 5801 5799 5796 5794 5791 5789 5786 5784 5782 5779 5777 5774 5772 5769 5767 5765 5762 5761 5759 5757 5755 5753 5752 5751 5749 5748 5748 5747 5745 5743 5742
5836 5832 5828 5824 5821 5818 5816 5813 5810 5807 5804 5802 5800 5797 5796 5793 5791 5788 5786 5783 5781 5779 5777 5774 5772 5769 5767 5764 5762 5760 5758 5756 5754 5753 5751 5750 5749 5748 5747 5747 5745 5743 5742
5838 5833 5829 5825 5822 5819 5816 5813 5810 5807 5804 5801 5799 5797 5794 5792 5790 5788 5785 5783 5781 5778 5776 5773 5771 5768 5766 5764 5762 5760 5758 5756 5754 5752 5751 5749 5748 5747 5746 5746 5744 5743 5742
5837 5833 5830 5827 5823 5820 5816 5813 5810 5807 5804 5801 5798 5796 5793 5791 5789 5787 5785 5782 5780 5778 5775 5773 5770 5768 5766 5764 5762 5759 5757 5755 5753 5752 5751 5750 5748 5747 5746 5745 5744 5743 5741
5835 5833 5830 5827 5824 5820 5817 5813 5810 5806 5803 5800 5797 5794 5792 5789 5787 5785 5783 5781 5779 5777 5775 5772 5770 5767 5765 5764 5762 5760 5757 5755 5753 5752 5751 5750 5749 5747 5746 5745 5745 5744 5742
5834 5832 5829 5826 5823 5819 5816 5813 5809 5805 5801 5798 5795 5792 5789 5786 5784 5782 5780 5778 5776 5775 5773 5771 5768 5766 5764 5762 5761 5759 5757 5756 5754 5752 5751 5751 5750 5748 5747 5746 5746 5744 5743
5836 5832 5829 5825 5822 5818 5815 5811 5808 5804 5800 5796 5792 5789 5786 5783 5780 5779 5777 5775 5774 5772 5770 5769 5767 5765 5763 5761 5760 5758 5757 5756 5755 5754 5751 5750 5750 5749 5748 5747 5747 5745 5744
5835 5831 5828 5824 5821 5817 5813 5809 5805 5801 5797 5793 5789 5786 5783 5780 5778 5776 5774 5773 5771 5770 5768 5767 5766 5764 5762 5760 5759 5757 5756 5755 5754 5754 5752 5750 5750 5749 5748 5748 5747 5746 5745
5833 5830 5828 5824 5819 5815 5810 5806 5802 5798 5794 5790 5787 5783 5780 5778 5776 5774 5772 5770 5769 5768 5767 5765 5764 5762 5760 5758 5757 5756 5754 5753 5753 5752 5752 5750 5749 5749 5749 5748 5747 5747 5745
5829 5827 5825 5821 5816 5811 5807 5803 5798 5794 5791 5787 5784 5781 5778 5775 5773 5771 5769 5767 5766 5766 5765 5763 5761 5760 5757 5755 5754 5753 5751 5751 5750 5749 5749 5749 5749 5748 5748 5747 5746 5746 5745
5825 5822 5820 5816 5812 5807 5802 5799 5795 5791 5788 5785 5782 5779 5776 5773 5770 5768 5766 5765 5764 5763 5762 5761 5759 5757 5754 5752 5751 5750 5749 5748 5747 5746 5746 5747 5747 5746 5746 5745 5745 5745 5745
5829 5822 5815 5810 5806 5802 5799 5796 5792 5789 5785 5782 5779 5776 5773 5770 5767 5765 5763 5763 5762 5761 5760 5759 5757 5754 5752 5749 5748 5747 5746 5744 5743 5743 5743 5745 5746 5745 5744 5744 5744 5744 5743
5825 5816 5809 5803 5801 5798 5797 5795 5791 5786 5782 5779 5776 5773 5768 5765 5763 5762 5761 5760 5760 5760 5758 5756 5754 5752 5749 5747 5745 5744 5743 5741 5740 5739 5741 5742 5743 5742 5742 5742 5742 5742 5741
5814 5806 5801 5795 5792 5791 5790 5790 5787 5783 5780 5777 5773 5770 5765 5762 5760 5759 5757 5757 5757 5756 5755 5752 5750 5749 5747 5746 5744 5742 5742 5740 5737 5736 5737 5739 5739 5739 5740 5739 5739 5739 5739
5797 5789 5784 5784 5784 5783 5783 5783 5782 5780 5778 5774 5771 5768 5764 5761 5757 5754 5753 5753 5753 5752 5750 5748 5747 5746 5744 5743 5742 5741 5739 5737 5735 5735 5735 5736 5737 5737 5736 5736 5737 5737 5736
5781 5775 5770 5765 5768 5772 5775 5775 5776 5775 5773 5769 5767 5765 5762 5758 5755 5752 5749 5748 5748 5748 5746 5745 5744 5743 5741 5740 5739 5739 5738 5737 5735 5734 5734 5735 5735 5735 5735 5735 5735 5734 5735
5770 5761 5759 5753 5752 5757 5763 5765 5766 5767 5765 5762 5760 5759 5757 5754 5751 5748 5745 5743 5743 5742 5740 5739 5738 5737 5737 5737 5736 5737 5737 5736 5736 5735 5735 5734 5734 5734 5734 5734 5734 5734 5734
5757 5753 5750 5751 5739 5740 5751 5753 5755 5757 5756 5753 5751 5751 5751 5749 5746 5744 5740 5738 5737 5736 5734 5734 5732 5732 5731 5732 5733 5735 5736 5735 5735 5735 5734 5734 5733 5733 5733 5733 5733 5733 5733
5753 5753 5750 5742 5737 5731 5736 5740 5743 5745 5746 5746 5745 5746 5745 5743 5741 5739 5735 5732 5731 5730 5729 5728 5727 5728 5728 5729 5731 5733 5734 5735 5736 5735 5734 5733 5733 5732 5732 5731 5731 5731 5731
5750 5748 5746 5738 5732 5726 5725 5726 5729 5731 5737 5740 5741 5741 5739 5738 5736 5733 5730 5728 5726 5724 5723 5724 5724 5724 5724 5727 5726 5726 5730 5734 5735 5734 5733 5732 5731 5731 5730 5730 5729 5729 5729
5742 5741 5739 5734 5729 5722 5721 5723 5725 5728 5731 5736 5737 5735 5734 5733 5731 5729 5726 5723 5722 5721 5719 5719 5719 5718 5720 5723 5721 5718 5717 5721 5727 5732 5730 5728 5728 5728 5727 5727 5727 5728 5728
5733 5729 5726 5724 5721 5718 5720 5721 5722 5723 5723 5724 5725 5726 5728 5728 5727 5726 5723 5721 5719 5718 5715 5715 5715 5714 5713 5717 5719 5716 5711 5709 5714 5722 5725 5724 5723 5721 5722 5723 5725 5725 5726
5721 5720 5716 5713 5710 5710 5712 5712 5712 5710 5710 5712 5715 5718 5721 5722 5722 5721 5720 5718 5716 5714 5712 5711 5712 5711 5710 5709 5713 5716 5715 5714 5709 5708 5715 5719 5719 5717 5716 5718 5720 5722 5723
5709 5708 5705 5702 5700 5698 5699 5700 5701 5701 5702 5704 5706 5708 5711 5714 5715 5715 5715 5713 5712 5709 5708 5707 5706 5706 5706 5706 5707 5708 5710 5710 5710 5705 5705 5709 5712 5713 5713 5714 5716 5717 5719
5696 5694 5692 5690 5689 5688 5687 5687 5687 5687 5689 5691 5693 5695 5698 5701 5704 5707 5708 5708 5707 5705 5703 5702 5701 5701 5702 5703 5704 5704 5704 5704 5704 5703 5702 5703 5704 5707 5710 5711 5712 5712 5714